FW5122 Weather Reports


Display with metric or nautical units.
time (UTC)temp
F
wind
direction
speed
MPH
gust
MPH
rain 1hr
in
rain 24hr
in
rain mn
in
humidity
%
barometer
mb
20260510141032 70 11 5.0 14.0 0.00 0.00 0.00 74 1015.8
20260510140333 69 84 5.0 14.0 0.00 0.00 0.00 75 1015.8
20260510135632 69 6 11.0 14.0 0.00 0.00 0.00 75 1016.2
20260510134932 68 102 8.0 12.0 0.00 0.00 0.00 75 1016.2
20260510134232 68 0 8.0 12.0 0.00 0.00 0.00 75 1016.2
20260510133532 68 21 2.0 12.0 0.00 0.00 0.00 75 1016.5
20260510132833 68 110 8.0 12.0 0.00 0.00 0.00 76 1015.8
20260510132132 68 55 8.0 12.0 0.00 0.00 0.00 76 1015.5
20260510131432 68 51 2.0 12.0 0.00 0.00 0.00 76 1015.1
20260510130732 68 13 5.0 12.0 0.00 0.00 0.00 77 1015.1
20260510130031 68 7 2.0 10.0 0.00 0.00 0.00 76 1015.5
20260510125532 68 55 8.0 10.0 0.00 0.00 0.00 77 1015.1
20260510124832 68 33 5.0 10.0 0.00 0.00 0.00 77 1015.5
20260510124132 67 25 5.0 10.0 0.00 0.00 0.00 77 1015.1
20260510123432 67 67 5.0 10.0 0.00 0.00 0.00 77 1015.5
20260510122732 67 61 8.0 10.0 0.00 0.00 0.00 77 1015.1
20260510122032 67 20 5.0 10.0 0.00 0.00 0.00 77 1015.1
20260510121332 67 112 8.0 8.0 0.00 0.00 0.00 77 1014.8
20260510120632 67 89 5.0 8.0 0.00 0.00 0.00 77 1014.8
20260510115932 67 47 5.0 8.0 0.00 0.00 0.00 77 1014.8
20260510115232 67 11 2.0 8.0 0.00 0.00 0.00 77 1014.8
20260510114532 67 81 8.0 8.0 0.00 0.00 0.00 77 1014.8
20260510113832 67 19 2.0 10.0 0.00 0.00 0.00 76 1014.8
20260510112432 67 14 2.0 12.0 0.00 0.00 0.00 76 1014.5
20260510111034 67 8 2.0 17.0 0.00 0.00 0.00 76 1014.5
20260510110332 68 11 0.0 17.0 0.00 0.00 0.00 75 1014.5
20260510105632 68 12 0.0 17.0 0.00 0.00 0.00 75 1014.1
20260510104933 68 42 5.0 29.0 0.00 0.00 0.00 75 1014.5
20260510104232 69 105 8.0 29.0 0.00 0.00 0.00 74 1014.1
20260510103532 69 16 8.0 29.0 0.00 0.00 0.00 73 1014.5
20260510102832 69 21 8.0 29.0 0.00 0.00 0.00 73 1014.8
20260510102132 70 17 5.0 29.0 0.00 0.00 0.00 73 1014.5
20260510101432 70 353 5.0 29.0 0.00 0.00 0.00 72 1014.5
20260510095331 72 14 14.0 19.0 0.00 0.00 0.00 72 1014.5
20260510094632 73 350 8.0 19.0 0.00 0.00 0.00 73 1014.8
20260510093932 75 326 11.0 19.0 0.00 0.00 0.00 77 1014.5
20260510093232 75 351 14.0 12.0 0.00 0.00 0.00 80 1014.1
20260510092532 75 16 5.0 6.0 0.00 0.00 0.00 80 1014.1
20260510091832 75 1 5.0 6.0 0.00 0.00 0.00 80 1013.8
20260510091132 75 8 2.0 6.0 0.00 0.00 0.00 79 1013.5
20260510090431 74 17 0.0 0.0 0.00 0.00 0.00 79 1013.1
20260510085732 74 1 0.0 0.0 0.00 0.00 0.00 78 1012.8
20260510085031 74 13 0.0 0.0 0.00 0.00 0.00 78 1012.4
20260510084331 74 12 0.0 0.0 0.00 0.00 0.00 78 1012.4
20260510082931 73 12 0.0 0.0 0.00 0.00 0.00 78 1012.4
20260510082231 73 10 0.0 0.0 0.00 0.00 0.00 78 1012.4
20260510081532 73 14 0.0 0.0 0.00 0.00 0.00 77 1011.8
20260510080132 73 15 0.0 0.0 0.00 0.00 0.00 77 1011.4
20260510075431 73 14 0.0 0.0 0.00 0.00 0.00 76 1011.4
20260510074732 74 14 0.0 0.0 0.00 0.00 0.00 76 1011.4
20260510074031 74 14 0.0 0.0 0.00 0.00 0.00 75 1011.1
20260510073331 74 14 0.0 0.0 0.00 0.00 0.00 74 1011.1
20260510072631 75 15 0.0 0.0 0.00 0.00 0.00 74 1011.4
20260510071931 75 15 0.0 2.0 0.00 0.00 0.00 73 1011.4
20260510071232 75 16 0.0 2.0 0.00 0.00 0.00 73 1011.4
20260510070531 75 16 0.0 4.0 0.00 0.00 0.00 72 1011.4
20260510065832 75 13 0.0 6.0 0.00 0.00 0.00 73 1011.8
20260510064431 75 8 0.0 6.0 0.00 0.00 0.00 71 1012.1
20260510063731 76 24 0.0 8.0 0.00 0.00 0.00 71 1012.1
20260510063031 76 10 0.0 8.0 0.00 0.00 0.00 71 1012.1
20260510062331 76 5 0.0 8.0 0.00 0.00 0.00 70 1011.8
20260510061631 76 8 0.0 8.0 0.00 0.00 0.00 70 1011.1
20260510060931 76 7 0.0 8.0 0.00 0.00 0.00 69 1010.4
20260510060232 76 44 2.0 8.0 0.00 0.00 0.00 69 1010.1
20260510055531 76 22 2.0 8.0 0.00 0.00 0.00 69 1010.4
20260510054831 76 4 5.0 8.0 0.00 0.00 0.00 68 1010.4
20260510053431 76 71 2.0 6.0 0.00 0.00 0.00 68 1010.4
20260510052731 76 16 0.0 6.0 0.00 0.00 0.00 67 1010.4
20260510052031 76 20 0.0 6.0 0.00 0.00 0.00 67 1010.1
20260510051331 76 20 2.0 6.0 0.00 0.00 0.00 66 1010.1
20260510050631 76 14 2.0 6.0 0.00 0.00 0.00 66 1009.7
20260510045931 76 62 5.0 6.0 0.00 0.00 0.00 65 1009.7
20260510045232 76 13 2.0 6.0 0.00 0.00 0.00 65 1009.7
20260510044532 76 99 2.0 6.0 0.00 0.00 0.00 65 1009.7
20260510043831 76 12 0.0 6.0 0.00 0.00 0.00 64 1009.7
20260510043131 76 35 2.0 6.0 0.00 0.00 0.00 64 1009.7
20260510042432 77 9 0.0 4.0 0.00 0.00 0.00 64 1009.7
20260510041731 77 14 0.0 4.0 0.00 0.00 0.00 63 1009.7
20260510040332 77 9 0.0 4.0 0.00 0.00 0.00 62 1010.1
20260510035631 78 6 0.0 4.0 0.00 0.00 0.00 62 1010.1
20260510034231 78 11 0.0 4.0 0.00 0.00 0.00 61 1010.1
20260510033531 78 23 2.0 6.0 0.00 0.00 0.00 61 1010.1
20260510032831 79 14 0.0 6.0 0.00 0.00 0.00 61 1010.1
20260510032131 79 13 2.0 6.0 0.00 0.00 0.00 60 1010.4
20260510030734 79 35 2.0 6.0 0.00 0.00 0.00 60 1010.4
20260510030034 79 22 2.0 6.0 0.00 0.00 0.00 60 1010.1
20260510025334 79 22 2.0 6.0 0.00 0.00 0.00 59 1010.1
20260510024634 79 29 2.0 6.0 0.00 0.00 0.00 59 1010.1
20260510023934 79 345 2.0 6.0 0.00 0.00 0.00 60 1009.7
20260510023234 78 10 2.0 4.0 0.00 0.00 0.00 60 1009.7
20260510021134 79 11 0.0 0.0 0.00 0.00 0.00 57 1009.4
20260510020434 79 9 0.0 0.0 0.00 0.00 0.00 57 1009.4
20260510015734 80 13 0.0 0.0 0.00 0.00 0.00 56 1009.4
20260510015034 80 13 0.0 2.0 0.00 0.00 0.00 56 1009.4
20260510014334 80 13 0.0 2.0 0.00 0.00 0.00 55 1009.4
20260510013633 81 13 0.0 4.0 0.00 0.00 0.00 55 1009.1
20260510012934 81 13 0.0 6.0 0.00 0.00 0.00 54 1009.4
20260510011534 82 13 0.0 6.0 0.00 0.00 0.00 53 1009.1
20260510010835 83 13 0.0 6.0 0.00 0.00 0.00 53 1009.1
20260510005434 84 8 0.0 6.0 0.00 0.00 0.00 52 1008.7
20260510004734 84 14 5.0 6.0 0.00 0.00 0.00 52 1008.7
20260510004033 84 42 8.0 6.0 0.00 0.00 0.00 52 1008.7
20260510003334 85 34 8.0 6.0 0.00 0.00 0.00 52 1008.7
20260510002633 85 13 0.0 6.0 0.00 0.00 0.00 51 1008.7
20260510001933 85 57 8.0 6.0 0.00 0.00 0.00 51 1009.1
20260510000534 86 7 0.0 6.0 0.00 0.00 0.00 51 1008.7
20260509235834 86 8 2.0 6.0 0.00 0.00 0.00 51 1008.7
20260509235133 86 4 5.0 6.0 0.00 0.00 0.00 51 1008.4
20260509234434 86 16 2.0 6.0 0.00 0.00 0.00 51 1008.7
20260509233733 86 46 8.0 6.0 0.00 0.00 0.00 51 1008.7
20260509233034 86 10 0.0 6.0 0.00 0.00 0.00 51 1008.7
20260509232334 86 47 5.0 6.0 0.00 0.00 0.00 51 1008.4
20260509230934 87 21 5.0 10.0 0.00 0.00 0.00 52 1008.7
20260509230234 87 10 5.0 10.0 0.00 0.00 0.00 52 1008.7
20260509225534 86 11 5.0 10.0 0.00 0.00 0.00 52 1008.4
20260509224834 87 325 5.0 10.0 0.00 0.00 0.00 52 1008.7
20260509224133 87 37 5.0 10.0 0.00 0.00 0.00 53 1008.7
20260509223433 87 7 5.0 10.0 0.00 0.00 0.00 53 1008.7
20260509222733 87 10 5.0 10.0 0.00 0.00 0.00 53 1008.4
20260509222036 87 0 5.0 10.0 0.00 0.00 0.00 53 1008.4
20260509221333 88 262 5.0 10.0 0.00 0.00 0.00 53 1008.4
20260509220633 88 122 8.0 8.0 0.00 0.00 0.00 52 1008.7
20260509215934 89 83 5.0 8.0 0.00 0.00 0.00 52 1008.7
20260509215233 89 9 5.0 8.0 0.00 0.00 0.00 52 1008.7
20260509214533 90 8 2.0 8.0 0.00 0.00 0.00 52 1008.7
20260509213133 90 6 2.0 8.0 0.00 0.00 0.00 52 1008.7
20260509212433 90 74 11.0 8.0 0.00 0.00 0.00 53 1008.7
20260509211733 90 41 5.0 10.0 0.00 0.00 0.00 53 1009.1
20260509211033 90 99 8.0 10.0 0.00 0.00 0.00 54 1009.1
20260509205633 91 37 5.0 10.0 0.00 0.00 0.00 51 1009.1
20260509204933 90 345 2.0 10.0 0.00 0.00 0.00 50 1009.1
20260509204233 90 11 8.0 10.0 0.00 0.00 0.00 50 1009.4
20260509203533 90 4 5.0 10.0 0.00 0.00 0.00 50 1009.4
20260509202834 90 85 11.0 10.0 0.00 0.00 0.00 51 1009.7
20260509202133 90 2 5.0 10.0 0.00 0.00 0.00 51 1009.7
20260509201433 90 23 5.0 10.0 0.00 0.00 0.00 52 1009.7
20260509200733 89 2 5.0 10.0 0.00 0.00 0.00 51 1010.1
20260509200033 90 8 2.0 10.0 0.00 0.00 0.00 50 1010.1
20260509195333 91 28 8.0 10.0 0.00 0.00 0.00 51 1009.7
20260509194633 90 8 11.0 10.0 0.00 0.00 0.00 53 1010.1
20260509193233 90 5 2.0 10.0 0.00 0.00 0.00 53 1010.1
20260509192533 90 358 5.0 10.0 0.00 0.00 0.00 54 1010.1
20260509191833 90 10 2.0 10.0 0.00 0.00 0.00 54 1010.4
20260509191133 89 20 8.0 8.0 0.00 0.00 0.00 55 1010.1
20260509190433 89 358 2.0 8.0 0.00 0.00 0.00 56 1010.1
20260509185733 89 9 5.0 8.0 0.00 0.00 0.00 57 1010.4
20260509185033 88 1 5.0 8.0 0.00 0.00 0.00 57 1010.4
20260509184333 87 8 5.0 8.0 0.00 0.00 0.00 58 1010.4
20260509183633 87 359 8.0 8.0 0.00 0.00 0.00 59 1010.4
20260509182933 87 347 5.0 8.0 0.00 0.00 0.00 61 1010.4
20260509182233 87 31 5.0 8.0 0.00 0.00 0.00 61 1010.4
20260509181533 87 298 8.0 8.0 0.00 0.00 0.00 61 1010.7
20260509180833 87 9 5.0 6.0 0.00 0.00 0.00 61 1010.4
20260509174733 87 8 2.0 8.0 0.00 0.00 0.00 61 1010.7
20260509174033 86 16 5.0 8.0 0.00 0.00 0.00 61 1011.1
20260509173333 86 7 2.0 8.0 0.00 0.00 0.00 62 1011.1
20260509172635 87 9 2.0 8.0 0.00 0.00 0.00 61 1011.1
20260509171932 86 5 5.0 8.0 0.00 0.00 0.00 62 1011.1
20260509171233 85 10 2.0 8.0 0.00 0.00 0.00 63 1011.1
20260509170532 85 20 5.0 8.0 0.00 0.00 0.00 62 1011.4
20260509165833 86 354 8.0 8.0 0.00 0.00 0.00 63 1011.1
20260509165133 86 353 0.0 8.0 0.00 0.00 0.00 63 1011.1
20260509163733 85 2 8.0 10.0 0.00 0.00 0.00 65 1011.4
20260509163033 84 2 5.0 10.0 0.00 0.00 0.00 64 1011.1
20260509162333 84 12 2.0 10.0 0.00 0.00 0.00 66 1011.4
20260509161633 84 6 2.0 10.0 0.00 0.00 0.00 65 1011.1
20260509160932 83 1 2.0 10.0 0.00 0.00 0.00 66 1011.1
20260509160233 82 1 2.0 10.0 0.00 0.00 0.00 67 1011.1
20260509155532 82 35 5.0 10.0 0.00 0.00 0.00 67 1011.4
20260509154833 81 352 5.0 10.0 0.00 0.00 0.00 69 1011.1
20260509154132 80 4 14.0 10.0 0.00 0.00 0.00 70 1011.1
20260509152732 79 4 5.0 6.0 0.00 0.00 0.00 73 1011.4
20260509152033 78 7 0.0 6.0 0.00 0.00 0.00 74 1011.1
20260509150632 77 339 8.0 6.0 0.00 0.00 0.00 75 1011.1
20260509145932 77 2 5.0 8.0 0.00 0.00 0.00 76 1011.1
20260509143832 76 8 5.0 8.0 0.00 0.00 0.00 79 1011.4
20260509143132 75 358 0.0 8.0 0.00 0.00 0.00 79 1011.1
20260509142432 75 355 5.0 8.0 0.00 0.00 0.00 81 1011.4